Theta_e
318 318 317 318 319 321 321 320 323 324 323 325 328 327 323 322 316 312 314 312 312 311 309 310 309 309 310 310 311 311 311 317 320 315 317 318 314 315 314 312 312 309 309 309 308 308 307 308 307 307 307 306 307 306 306 306 305 305 305 305 306 308 309 309 309 308 308 307 307 306 306 306 306 306 305 305 305 305 306 305 304 304 305 307 309 313 318 320 321 321 320 317 313 314 316 316 318
318 318 317 317 319 321 321 321 327 329 325 327 327 326 323 318 315 316 318 315 314 311 310 311 310 310 309 310 309 309 311 312 314 313 315 316 314 314 312 311 310 308 309 308 308 308 307 307 307 307 307 307 307 306 306 306 305 305 305 305 306 308 309 309 309 308 308 307 307 307 306 306 306 306 305 305 305 306 306 305 304 304 306 307 310 315 318 320 321 320 320 317 313 315 317 317 317
318 317 317 318 321 321 322 322 328 328 323 326 329 327 320 315 318 321 317 313 312 310 310 311 310 310 309 310 309 309 312 311 312 312 313 315 315 313 311 311 309 309 308 308 308 307 307 307 307 307 306 306 306 306 306 305 305 305 305 305 307 308 309 309 309 309 308 307 307 307 307 307 307 306 305 306 305 306 306 305 304 305 308 307 312 317 319 319 320 319 319 317 314 315 317 317 317
317 317 317 318 321 321 324 325 331 329 323 326 328 326 322 318 321 319 312 309 310 310 310 310 310 310 310 311 310 309 310 311 312 311 312 314 314 313 312 311 309 309 308 308 307 307 307 307 306 307 307 306 306 306 306 305 305 305 305 305 308 309 309 309 309 309 308 307 307 307 307 307 307 306 306 306 306 306 306 305 304 306 308 306 312 316 318 319 320 318 317 318 315 315 317 317 318
316 316 317 320 322 323 323 322 328 326 323 329 325 325 328 322 322 318 311 308 310 310 309 309 309 309 309 310 310 310 311 311 311 311 312 312 312 312 311 310 309 308 308 307 307 307 307 306 307 306 306 306 306 306 306 306 305 305 305 306 308 309 309 309 309 309 308 307 307 307 307 307 307 307 306 306 306 306 306 305 305 307 308 307 309 313 318 319 319 318 316 317 316 315 317 317 318
315 315 319 321 321 320 322 323 325 326 324 327 326 327 328 319 316 314 309 309 310 309 309 309 309 309 308 309 310 310 311 311 312 311 311 312 311 310 310 310 309 309 308 307 307 307 307 307 306 306 306 306 306 306 306 305 305 305 305 307 308 308 309 309 309 309 308 307 307 308 307 308 307 307 306 306 306 306 306 305 305 308 308 307 308 311 317 319 318 318 316 317 317 315 317 317 317
314 317 320 321 321 319 325 328 327 330 325 321 324 327 323 314 310 309 309 310 310 309 309 309 309 310 310 309 310 310 311 311 312 311 311 311 311 310 310 309 309 308 307 307 307 307 307 307 306 306 306 306 306 306 306 305 305 305 306 308 308 308 309 309 309 308 308 308 307 307 308 308 307 307 307 307 307 306 306 305 306 308 308 308 308 313 317 317 317 318 316 317 317 315 314 316 315
314 319 320 322 325 322 325 327 326 328 323 317 318 320 318 314 309 310 311 310 311 310 309 309 308 309 311 309 310 311 310 311 311 311 312 311 311 311 310 309 309 308 307 307 307 307 307 306 306 306 306 306 306 306 306 305 305 305 306 308 308 308 309 309 309 309 308 308 308 307 308 308 307 307 307 307 307 306 306 305 307 308 308 308 309 315 317 316 317 318 316 315 317 315 313 315 316
315 319 319 322 324 323 326 325 323 322 322 320 317 315 314 313 310 311 313 311 310 309 309 309 309 309 309 307 309 311 311 311 310 311 311 311 311 310 310 309 309 308 308 307 307 307 306 307 306 306 306 305 306 306 306 306 306 305 307 308 308 309 309 309 308 309 308 307 307 308 308 308 308 307 307 307 307 307 306 305 308 308 308 308 310 315 313 312 316 318 318 316 316 316 313 315 317
317 319 319 323 323 323 326 324 323 323 324 320 315 316 313 312 311 310 312 312 309 310 310 309 309 309 308 308 309 310 311 311 310 311 311 311 311 310 310 309 309 308 308 307 307 306 306 307 307 307 306 305 306 306 306 306 306 306 307 308 308 309 309 309 308 308 308 308 307 308 308 308 307 307 307 307 307 306 306 305 308 309 308 309 311 313 310 309 313 316 318 318 317 315 312 316 318
319 318 317 321 322 324 325 325 326 327 326 318 314 314 313 312 310 309 310 310 310 309 309 309 309 309 307 307 309 311 311 311 311 311 311 310 310 310 310 309 309 308 308 307 306 306 306 307 307 307 306 306 306 306 306 306 306 306 307 308 308 309 309 308 308 308 308 308 307 308 308 308 308 308 308 307 307 306 306 306 308 309 308 309 311 313 311 309 311 313 317 318 316 313 314 318 318
319 320 323 326 327 326 325 328 330 329 329 324 318 314 312 311 311 312 311 311 310 308 309 310 310 309 308 308 309 310 310 310 311 311 311 311 310 310 309 309 309 308 308 307 307 306 306 307 307 307 307 306 306 306 306 306 306 307 307 308 308 308 309 308 308 308 308 308 307 308 308 308 308 307 308 307 307 307 306 306 308 309 308 310 311 313 311 309 311 311 314 316 315 313 314 317 316
318 321 326 327 328 328 325 327 329 328 330 327 317 312 312 310 312 313 311 310 309 309 311 311 310 309 309 309 310 310 310 310 310 311 311 310 310 310 309 309 309 309 308 307 307 306 306 307 308 308 308 307 307 307 306 306 306 307 308 308 308 309 308 308 308 308 308 308 307 308 308 308 308 308 308 307 307 307 306 306 309 309 309 310 311 313 310 309 311 311 313 313 313 313 314 315 316
318 318 324 326 323 326 326 324 325 324 328 327 314 310 311 311 312 311 311 311 310 310 312 311 310 309 309 310 310 311 310 310 310 310 311 310 310 310 310 310 310 309 308 308 307 306 306 306 308 308 308 308 307 307 307 307 307 307 308 308 308 309 308 308 308 308 308 308 308 308 308 307 308 308 307 308 307 307 306 306 309 309 309 311 312 312 309 310 312 312 313 313 313 314 314 315 316
317 317 324 327 322 323 323 322 324 324 327 325 312 308 310 311 312 311 311 313 312 312 312 311 309 310 310 310 311 311 310 310 310 310 310 310 310 310 310 310 310 309 308 307 307 307 306 306 308 309 308 308 307 307 307 307 307 307 307 308 309 309 308 308 308 308 308 308 308 308 307 308 308 308 307 308 307 307 306 306 308 309 309 311 313 312 310 311 314 314 313 313 313 314 315 315 316
317 318 324 327 323 323 323 320 321 322 326 322 310 308 310 311 312 311 312 312 312 312 311 311 310 310 311 310 311 310 310 310 310 310 310 310 310 310 310 310 310 310 309 307 307 306 306 306 307 309 309 309 308 307 307 307 307 308 308 308 308 309 308 308 308 308 308 308 308 308 308 308 308 308 308 308 308 307 306 306 308 309 310 312 313 311 312 315 317 316 312 312 313 313 315 315 316
316 318 324 325 324 323 323 322 320 321 325 318 308 307 311 312 310 310 311 310 311 311 311 311 310 311 311 311 311 311 311 311 310 310 310 310 310 310 310 310 310 310 309 308 307 307 306 306 307 309 309 309 308 308 307 307 307 308 308 308 308 309 309 309 308 308 308 308 308 308 308 308 308 308 308 307 308 307 306 306 307 309 310 312 313 312 315 318 319 317 312 312 313 314 315 316 317
317 321 324 323 325 324 323 324 318 317 318 312 307 307 309 311 309 309 310 310 310 310 310 311 311 311 311 311 311 311 311 311 310 310 310 310 310 310 310 310 311 310 309 308 307 307 307 306 307 308 309 309 308 308 307 307 308 308 308 308 309 308 309 309 309 308 308 308 308 308 308 308 308 308 308 308 308 307 306 305 307 309 310 313 314 313 316 318 320 318 314 312 314 317 318 318 320
317 323 322 322 327 321 316 318 312 311 313 310 308 307 307 310 309 308 310 310 309 308 309 309 310 311 312 311 311 311 311 311 311 310 310 310 310 310 310 310 311 310 309 309 308 307 307 306 306 308 309 309 308 308 307 308 308 308 308 308 309 309 309 309 309 308 308 308 308 308 308 308 308 308 307 308 308 307 307 305 306 308 310 312 314 313 315 318 319 320 318 316 317 320 321 320 321
315 317 322 327 325 319 313 313 312 311 311 309 308 307 307 309 308 308 309 309 308 308 308 308 309 312 313 312 311 310 310 310 310 310 310 310 310 310 310 310 310 310 310 309 308 308 307 306 306 307 308 309 308 308 307 308 308 308 308 308 308 309 308 309 309 308 308 308 308 308 308 308 308 308 308 308 308 307 307 306 305 307 310 312 314 314 314 317 319 318 319 319 320 321 321 319 319
314 315 325 324 315 317 317 314 314 312 309 308 307 307 308 309 309 308 308 309 310 309 309 310 311 312 313 312 311 310 310 310 310 310 310 310 310 310 310 310 309 310 310 309 308 308 307 307 306 306 307 309 309 308 308 308 308 308 308 308 308 309 309 309 309 309 308 308 308 308 308 308 308 308 308 308 308 307 307 306 305 306 310 311 313 315 313 316 318 316 317 319 321 321 320 319 318
314 315 318 314 309 315 317 313 314 311 309 308 306 307 310 309 308 309 308 309 312 311 311 312 312 312 312 311 311 310 310 310 310 309 310 310 310 310 309 310 310 309 309 309 308 308 308 307 307 306 307 309 309 308 308 307 308 308 308 308 308 308 309 308 308 308 308 308 308 308 308 308 308 308 308 308 308 308 307 307 305 305 309 311 313 316 314 315 316 316 317 319 320 320 319 319 319
315 314 310 309 310 313 315 313 312 311 309 308 307 309 309 307 308 309 308 309 313 313 313 313 313 313 311 311 310 310 310 310 310 310 310 310 310 310 310 310 310 309 309 309 309 308 307 307 306 306 307 309 309 308 307 308 308 308 308 308 308 308 308 308 308 308 308 308 308 308 308 308 308 308 308 308 308 308 307 307 306 305 308 310 312 316 315 313 315 316 317 319 319 319 319 319 320
313 315 310 309 309 310 313 313 311 310 309 309 309 308 307 308 310 308 307 310 313 313 313 313 313 312 311 310 310 310 310 310 310 310 310 310 310 309 309 310 309 309 309 309 309 308 307 307 307 306 307 309 309 308 307 308 308 308 308 308 308 308 308 308 308 308 308 308 308 308 308 308 308 308 308 308 308 308 308 307 306 305 306 309 311 315 315 313 315 316 317 318 319 319 318 318 320
312 314 311 308 309 310 311 310 310 310 309 309 307 306 307 309 309 306 308 312 313 313 313 312 312 311 310 310 310 310 310 310 310 309 309 309 309 309 309 309 309 309 309 309 309 308 308 307 307 306 306 309 309 308 308 308 308 308 308 308 308 308 308 308 307 308 307 307 308 308 308 308 308 308 308 308 308 308 308 307 307 305 305 307 311 315 316 315 316 316 316 317 318 318 317 318 320
311 310 309 307 309 309 309 309 310 309 308 308 307 307 308 308 308 308 311 313 312 312 311 310 310 309 310 310 310 310 309 310 310 309 310 309 309 309 309 309 309 309 309 309 308 308 308 307 307 307 306 308 309 308 308 308 308 308 308 308 308 308 308 308 307 307 307 307 307 307 308 308 308 308 308 309 308 308 308 307 307 306 305 305 309 314 316 316 317 317 315 316 318 318 317 317 319
308 307 307 307 307 307 308 308 309 308 308 307 308 310 308 306 308 310 311 311 310 310 310 309 310 309 310 310 310 310 309 310 310 309 309 309 309 309 310 310 309 310 309 309 309 308 308 307 307 307 306 307 308 309 308 308 308 308 308 308 308 308 308 308 307 308 307 307 307 307 308 308 308 308 308 309 308 308 308 308 307 307 305 305 306 311 316 317 317 317 316 315 317 318 317 317 318
307 306 306 307 305 305 306 306 306 306 307 306 307 309 307 305 307 310 310 309 310 310 310 311 310 311 310 310 310 311 311 311 311 310 310 310 310 310 310 310 310 310 310 310 310 309 308 307 307 307 306 306 308 309 309 308 308 308 308 308 308 308 308 308 308 308 308 307 308 307 308 308 308 308 308 309 308 308 308 308 307 307 306 305 305 308 314 317 317 317 316 315 316 317 317 317 317
306 305 307 310 307 307 306 304 304 304 307 306 305 308 308 308 308 310 310 309 310 309 310 311 310 310 310 310 311 312 312 312 312 311 312 313 311 311 310 311 310 309 310 310 309 309 308 307 307 307 306 306 307 308 309 308 308 308 308 308 308 308 308 308 308 308 307 307 308 307 307 308 308 308 308 308 308 308 308 307 308 307 307 306 305 305 308 312 315 315 314 314 315 317 317 318 317
306 304 306 310 309 310 305 302 303 303 307 306 305 308 309 310 309 309 310 309 309 308 309 310 309 310 310 311 312 313 312 312 313 313 314 314 313 312 311 311 310 310 310 309 309 309 309 308 307 307 306 306 306 308 309 308 308 308 308 308 308 308 308 308 307 307 307 307 307 307 307 308 308 308 308 308 308 308 307 307 307 307 307 306 306 305 305 306 309 310 311 313 314 316 317 317 317
309 304 307 310 308 313 308 301 303 305 306 305 305 309 308 310 309 308 309 308 307 308 309 310 311 312 312 313 313 313 313 313 314 314 314 315 314 313 313 312 311 310 310 309 309 309 309 308 308 307 307 306 306 308 309 308 308 308 308 308 308 308 308 308 308 308 308 308 307 307 308 308 308 308 308 308 308 308 307 307 307 307 307 307 306 306 305 305 305 306 307 310 313 316 317 317 317
316 307 311 314 307 313 312 302 301 305 306 304 305 310 308 309 310 308 309 309 308 308 309 311 312 312 312 312 313 313 313 313 314 314 314 315 315 315 314 313 312 311 311 310 309 309 309 308 308 308 307 306 306 307 309 308 308 308 308 308 308 308 308 308 308 308 307 307 307 307 307 308 308 308 308 308 307 308 307 307 307 307 307 307 306 306 306 305 304 304 304 306 310 315 317 317 317
319 309 310 316 309 311 312 305 300 302 306 305 306 309 308 310 310 309 309 309 308 307 307 310 311 312 313 312 313 313 313 314 314 314 315 314 315 315 315 314 313 312 311 310 309 309 309 308 308 308 307 306 306 307 309 308 308 308 308 308 308 308 308 308 308 307 307 307 307 307 307 307 307 308 308 308 307 307 307 307 307 307 306 306 307 306 306 306 305 304 304 304 307 313 316 316 317
316 309 309 314 311 308 310 310 304 301 306 307 307 307 307 309 308 307 308 307 307 306 306 309 311 312 313 313 312 312 313 314 314 315 315 315 315 315 315 315 314 313 312 311 310 309 309 309 308 308 307 307 306 307 309 308 308 307 307 308 307 308 308 307 307 307 307 307 307 307 307 307 307 308 308 307 307 307 307 307 307 306 306 306 306 307 306 306 305 305 304 304 306 312 314 315 316
313 311 311 313 313 309 310 312 307 305 308 308 308 308 307 307 307 306 308 307 307 307 307 308 310 311 312 312 312 313 313 314 315 315 315 315 315 315 315 314 314 313 313 311 310 309 309 308 308 308 307 307 306 307 309 308 307 307 307 308 307 308 308 308 308 307 307 307 307 307 307 307 307 308 308 307 307 307 307 307 307 306 306 306 306 306 306 306 305 305 305 305 306 310 313 314 315
315 317 315 313 314 310 310 312 307 304 309 311 309 309 309 308 308 307 308 309 308 308 308 308 309 310 311 312 313 313 314 315 315 315 315 315 315 315 314 314 314 313 313 312 310 309 309 308 308 308 307 307 306 307 308 308 307 307 307 308 308 308 308 308 308 307 307 307 307 307 307 307 307 307 308 307 307 307 307 307 307 306 306 306 306 306 306 305 305 305 305 305 306 309 312 313 314
315 315 313 313 312 310 310 310 308 304 310 316 311 310 311 309 309 309 308 309 309 309 308 308 309 309 310 312 313 314 314 315 316 315 315 315 315 315 315 314 314 313 313 312 310 309 309 308 308 307 307 307 307 307 309 308 308 308 308 308 308 308 309 308 308 308 307 307 307 307 307 307 308 308 308 307 307 307 307 307 307 306 306 306 305 305 305 305 305 305 305 306 307 309 310 312 312
313 312 312 313 311 311 310 308 311 309 310 316 314 313 314 311 311 311 310 311 311 310 309 308 309 309 310 312 313 314 315 315 316 316 315 315 316 315 315 314 314 314 313 312 311 310 309 308 308 307 307 307 307 307 308 309 309 309 309 309 309 308 308 308 308 308 307 307 307 307 307 308 308 308 308 307 307 307 306 307 307 307 306 306 305 305 305 305 305 305 305 305 307 310 310 310 310
316 313 313 315 313 314 312 308 313 313 311 317 317 313 313 311 311 311 310 310 310 310 310 310 310 309 311 313 313 314 315 317 317 316 316 316 316 316 315 314 314 314 314 313 312 311 309 309 308 307 308 307 307 307 308 309 309 309 308 308 308 308 308 308 308 308 307 307 307 307 307 307 308 308 308 307 307 307 307 307 307 307 307 306 306 305 305 305 305 305 305 305 306 309 309 309 309
316 314 313 317 314 313 313 311 313 314 310 314 317 313 313 312 312 316 311 306 308 310 310 310 310 310 312 312 313 314 315 316 317 317 316 316 316 316 315 314 314 314 314 313 312 311 310 309 308 308 308 308 307 306 307 309 309 308 308 308 307 307 307 307 307 307 307 307 307 307 307 307 308 308 308 307 307 307 307 307 307 307 307 306 306 305 305 305 305 305 305 305 305 307 308 308 308
319 316 314 317 313 310 313 312 313 315 312 311 314 316 319 321 321 327 319 307 307 308 308 310 311 312 313 313 314 314 315 315 316 317 316 316 316 316 315 315 314 314 314 314 313 312 311 310 309 308 308 308 307 306 307 308 308 308 307 307 307 307 307 307 307 308 308 307 307 307 307 307 308 308 308 307 307 307 307 307 307 307 307 307 307 306 305 305 305 305 305 305 305 305 306 307 308
320 316 313 312 310 310 314 316 315 321 320 312 312 317 326 329 324 325 321 314 314 310 308 311 312 314 314 314 315 314 315 315 315 317 316 316 315 315 315 315 314 314 314 314 313 312 311 310 309 308 308 308 307 306 306 308 309 308 308 308 307 307 308 308 308 309 308 308 308 307 307 307 307 308 308 307 307 307 307 308 308 307 307 307 307 306 306 305 305 305 305 304 304 304 305 306 307
315 312 310 310 309 311 315 317 315 320 321 311 310 316 320 321 317 316 317 319 320 314 312 312 310 314 315 313 315 315 315 316 315 316 316 316 315 315 315 315 315 314 314 314 313 312 311 310 309 308 309 308 307 307 306 308 309 309 308 308 308 308 308 309 309 309 308 308 307 307 307 307 307 308 307 307 307 307 308 308 308 308 308 307 307 307 307 306 305 304 305 305 304 304 304 305 306
315 310 309 312 312 313 314 315 314 316 317 313 312 315 316 317 316 318 318 319 320 316 319 320 312 313 315 314 315 315 315 315 315 316 316 315 315 314 315 314 314 314 313 313 312 312 311 310 310 309 309 308 307 307 306 308 309 309 309 308 308 308 308 308 308 308 308 307 307 306 306 307 307 308 308 307 307 307 308 308 308 308 308 308 308 308 307 306 306 305 305 305 304 304 304 304 305
313 307 308 311 311 313 314 315 317 315 314 317 317 312 314 321 321 322 318 315 320 320 326 330 317 313 315 315 315 315 314 315 314 315 315 315 314 314 314 314 314 313 313 312 312 312 311 310 310 308 309 308 307 307 306 308 309 309 309 308 308 308 308 308 307 307 307 307 307 306 306 307 307 307 308 308 308 307 308 308 308 308 308 308 308 308 308 307 307 306 305 305 305 305 304 304 304
307 304 308 312 311 313 315 315 317 316 315 317 318 311 312 320 325 325 317 314 323 325 328 330 316 311 314 314 315 315 314 314 314 315 315 315 314 314 314 314 314 313 313 312 311 311 310 310 309 309 309 308 307 307 307 308 309 309 309 308 308 308 307 307 307 307 307 307 307 306 306 307 307 307 308 308 308 308 308 308 309 309 308 308 309 309 308 308 308 307 306 306 305 305 305 304 304
304 307 313 315 315 314 315 317 315 316 322 320 315 311 311 314 323 327 318 315 320 322 325 326 314 309 312 314 314 313 313 313 313 314 314 314 314 313 314 314 314 313 313 312 311 311 310 310 309 309 308 308 308 307 307 308 308 308 308 308 308 308 307 307 307 307 307 307 307 307 307 307 307 307 308 308 308 308 308 308 309 309 309 309 309 309 309 309 308 308 307 307 306 306 306 305 305
306 314 317 315 318 317 317 321 315 316 327 321 312 311 311 313 320 324 320 316 316 317 318 319 315 311 312 313 314 313 313 314 313 314 314 314 314 313 313 313 314 314 313 313 312 311 310 310 309 309 308 308 308 307 307 307 308 308 308 308 308 307 307 307 307 307 308 308 307 307 307 307 307 307 308 308 308 308 308 308 309 309 309 309 309 309 309 309 309 308 308 308 308 307 307 307 306
312 317 319 317 320 319 319 323 319 319 323 314 309 311 311 314 316 314 315 314 313 313 312 312 312 310 311 313 314 314 314 314 313 314 314 314 314 313 313 313 313 314 313 313 312 311 311 310 309 309 309 308 308 308 307 307 307 307 307 308 308 307 307 307 307 307 308 307 307 307 307 307 307 307 308 308 308 308 308 308 308 309 309 309 309 309 309 309 309 309 308 308 308 308 308 308 307
312 316 320 321 320 317 321 324 316 315 317 310 307 310 312 316 316 314 315 313 311 310 309 310 310 309 311 313 313 313 314 314 313 313 313 314 314 313 313 313 313 314 313 313 313 312 312 311 310 310 309 309 308 308 308 307 307 307 307 307 307 307 307 307 307 307 308 308 307 307 307 307 307 307 308 308 308 308 307 307 307 308 308 308 308 309 309 309 309 309 309 308 308 308 308 308 307
312 315 316 318 321 318 320 324 317 314 318 314 308 312 320 321 317 316 314 309 308 307 308 309 309 309 310 311 313 313 314 314 313 313 313 313 314 313 313 313 313 313 313 313 313 313 313 312 311 311 310 310 309 308 308 308 307 307 307 307 307 307 307 307 308 308 308 308 307 307 307 307 307 307 307 307 307 307 307 307 307 307 308 308 308 308 308 309 309 309 309 309 308 308 308 308 308
311 311 312 316 320 319 315 314 314 313 315 317 312 315 322 318 314 315 312 311 310 306 304 305 307 310 309 310 313 313 314 314 312 313 314 313 313 313 312 313 313 313 313 313 313 313 313 313 312 312 311 311 310 309 309 309 308 307 306 306 307 307 307 308 308 308 308 307 307 307 307 307 307 307 307 307 307 307 307 307 307 306 307 308 308 308 309 309 309 309 309 308 308 308 308 307 307
310 310 315 314 311 316 318 310 307 307 312 318 315 315 319 314 313 317 317 318 317 313 311 305 305 309 309 311 313 313 314 314 313 313 313 313 313 312 312 313 312 312 312 312 312 312 313 313 313 313 312 311 311 310 309 309 308 308 307 307 307 307 307 308 308 308 308 307 307 307 307 307 307 307 306 306 306 306 307 307 307 307 307 307 308 308 308 308 309 309 308 308 308 308 307 307 307
312 313 314 310 305 312 316 312 313 313 315 318 314 315 318 314 315 320 319 318 316 317 317 309 306 307 308 311 313 313 313 313 313 313 313 313 313 312 312 312 312 312 312 312 312 312 312 312 312 313 312 312 312 311 310 309 309 308 308 307 307 307 307 308 308 308 308 307 307 307 307 307 307 307 306 306 306 306 307 307 307 307 307 307 307 308 308 308 308 308 308 308 308 307 307 307 306
307 308 307 307 311 317 313 312 319 316 314 318 316 312 313 313 316 319 316 314 316 316 315 315 314 309 307 311 313 313 313 312 313 313 312 313 313 312 313 312 312 312 312 312 311 311 312 312 312 312 312 312 312 311 311 310 309 309 308 307 307 307 307 308 308 308 307 307 307 307 307 307 307 307 307 306 307 307 307 307 307 307 307 306 306 307 307 307 307 307 308 308 308 307 307 307 306
303 305 305 306 312 318 314 312 317 316 315 318 318 317 316 315 317 320 316 314 316 315 314 318 317 309 307 311 312 313 313 312 313 313 313 313 312 313 312 311 312 312 312 312 311 312 312 311 311 311 312 312 312 312 311 311 310 310 309 308 307 307 307 307 308 308 308 307 307 307 307 307 307 307 307 307 307 306 307 306 306 307 307 306 306 306 306 307 307 307 307 308 308 307 307 307 306
308 310 311 308 308 311 312 310 311 317 321 319 316 318 318 314 315 318 316 314 314 314 315 317 313 309 310 311 312 313 313 313 313 312 313 313 312 313 312 312 312 311 312 312 311 312 312 311 311 311 311 311 311 312 311 311 311 310 310 309 307 307 307 307 308 308 308 307 308 308 307 307 307 307 307 307 307 306 306 306 306 306 306 306 306 306 306 306 307 307 307 307 307 307 307 307 306
310 312 314 311 310 312 314 312 309 311 315 317 317 316 315 314 315 316 315 314 313 312 313 314 309 307 311 312 312 313 313 313 313 312 313 312 312 312 312 312 312 311 311 311 311 312 311 311 311 310 311 311 311 311 311 311 311 310 310 309 308 308 307 307 307 308 308 308 308 308 308 308 307 307 307 306 306 306 306 306 306 306 306 306 306 306 306 306 306 307 307 307 307 307 307 307 306
Wind_Speed
7 8 9 9 8 6 6 5 2 2 2 1 3 1 4 2 1 2 3 2 1 3 6 3 6 14 7 1 4 5 5 7 6 4 2 3 4 6 7 8 9 8 7 7 8 8 8 8 8 8 7 7 7 7 6 6 6 7 7 7 8 8 10 11 11 11 11 10 9 9 9 9 9 10 10 10 10 12 13 15 16 17 19 20 19 17 16 17 20 21 23 25 24 21 19 19 20
8 8 8 7 7 5 4 3 1 3 3 2 3 3 4 4 1 4 6 5 3 2 6 4 6 12 7 4 3 5 7 11 10 7 5 2 5 5 6 7 8 8 8 7 7 7 8 8 8 8 8 7 7 6 6 7 7 7 7 7 8 9 10 11 11 12 11 10 9 9 9 10 10 10 10 10 10 12 13 15 16 17 20 20 18 16 15 18 20 23 25 24 22 18 17 19 19
8 8 7 6 5 4 2 2 1 0 1 3 5 4 2 2 5 7 8 6 2 3 6 4 5 9 7 5 3 2 6 11 13 13 8 5 6 5 5 6 7 8 8 7 7 8 8 8 8 8 8 7 6 6 7 7 7 7 7 7 8 9 10 11 11 12 11 10 9 9 10 10 10 10 10 10 11 12 13 15 17 18 21 20 17 15 15 18 20 23 23 23 22 18 17 18 19
8 7 5 4 2 2 2 2 1 3 1 3 3 5 3 3 7 7 6 4 2 4 6 4 4 6 6 6 5 4 10 11 10 11 8 6 7 7 7 8 7 6 6 7 7 8 8 8 8 8 7 7 6 6 7 7 7 7 7 7 8 9 10 10 11 12 12 10 9 9 10 10 10 10 10 10 11 12 14 15 17 19 21 20 17 15 15 18 20 23 22 21 21 18 17 19 20
8 6 3 2 1 0 2 2 1 3 4 4 2 6 5 6 6 6 3 2 4 5 4 4 2 3 6 10 7 4 7 8 7 9 8 7 6 7 8 8 7 6 6 6 7 8 7 8 7 7 7 7 6 7 8 8 8 8 7 8 8 9 10 10 11 12 12 11 10 9 10 10 10 11 11 11 11 12 14 15 18 19 21 20 18 16 15 18 20 22 22 20 20 18 17 18 19
7 4 3 1 1 1 2 1 1 2 5 5 3 6 5 5 6 6 1 1 4 5 3 3 2 3 5 10 11 11 7 4 3 7 9 9 7 6 7 7 7 7 7 7 7 7 7 7 7 7 7 7 7 7 8 8 8 8 7 8 8 9 9 10 11 12 12 11 10 9 10 10 10 11 11 11 11 12 14 16 18 19 20 19 18 17 16 17 19 22 22 19 19 17 16 17 18
6 4 3 3 1 1 2 3 4 4 5 5 5 5 5 4 4 3 1 1 3 5 4 4 2 3 5 7 9 16 16 12 6 4 6 9 9 8 6 6 7 7 7 7 7 7 7 7 7 7 7 7 7 8 9 9 8 8 7 8 8 9 9 10 11 11 12 11 11 10 10 10 11 11 11 11 11 12 14 15 17 18 18 18 18 16 16 16 18 21 21 18 18 17 17 17 18
6 4 2 3 0 2 2 3 4 3 4 4 5 6 7 7 4 3 3 2 2 4 4 6 3 1 6 6 6 10 12 16 14 10 6 6 9 8 7 6 6 6 6 7 7 7 7 7 7 7 7 8 8 9 9 9 9 8 8 8 8 9 9 10 11 11 11 12 11 10 10 10 10 11 11 11 11 12 14 15 17 18 18 18 18 16 16 16 17 19 20 18 17 17 18 18 18
8 5 1 2 2 1 0 2 3 3 4 5 4 9 11 8 5 5 4 3 2 2 3 6 5 3 5 7 12 13 10 12 15 16 12 8 8 8 8 7 7 7 7 7 7 7 7 7 7 8 8 8 8 9 10 9 9 8 8 8 8 9 9 10 10 11 11 12 12 11 11 10 10 11 11 11 11 12 13 15 16 17 17 18 18 17 16 15 16 17 18 19 18 18 18 17 18
8 5 2 2 2 1 3 3 3 3 5 5 6 12 12 8 6 6 5 3 3 2 2 4 8 11 8 9 15 14 12 12 12 15 14 13 11 10 9 9 9 8 8 8 8 8 7 8 8 8 9 9 9 10 11 10 9 8 8 8 8 9 9 10 10 11 11 12 12 12 11 11 11 11 12 11 11 12 13 14 16 17 17 17 18 18 18 16 16 16 17 18 18 17 17 17 18
6 3 3 2 2 3 4 4 3 5 5 5 8 11 9 6 6 5 5 3 4 4 3 4 6 12 10 11 17 15 14 15 12 11 12 14 12 10 10 9 9 8 9 9 9 8 8 9 9 9 9 9 10 11 11 10 9 8 8 8 9 9 9 10 10 11 10 11 12 12 12 11 11 11 11 11 10 11 12 14 15 16 16 16 17 18 18 16 16 17 17 17 17 16 17 18 19
5 1 3 2 3 4 4 3 4 5 6 4 5 4 2 6 6 4 6 5 5 4 7 8 4 5 4 6 12 14 13 12 12 12 12 13 12 11 11 9 8 8 10 10 10 9 9 9 9 10 10 10 11 11 11 10 10 9 8 9 9 9 9 10 10 11 11 11 12 12 12 11 11 11 11 11 10 11 12 13 14 15 15 16 16 17 18 16 16 17 18 17 17 16 18 18 18
6 3 5 2 3 3 3 2 4 4 6 4 4 2 2 7 7 6 5 4 5 3 6 10 9 5 4 8 13 15 12 11 12 12 13 13 13 13 12 11 10 10 11 11 11 10 11 11 10 10 10 11 11 11 11 10 10 9 9 9 10 10 9 10 10 11 11 11 12 12 12 11 11 11 11 10 10 10 11 12 13 14 14 15 15 16 17 15 16 17 18 17 16 16 18 18 18
9 5 5 2 1 2 4 2 3 2 5 5 3 2 5 6 6 7 4 4 7 7 6 7 10 7 7 10 13 14 12 12 13 13 14 14 15 15 14 13 12 12 12 12 12 12 12 12 11 11 11 11 11 11 11 11 11 9 9 9 10 10 10 10 10 11 11 11 12 12 12 12 11 11 11 10 9 10 10 11 13 13 13 13 14 15 15 15 16 18 18 17 15 15 17 16 17
11 5 5 2 1 0 3 3 3 3 5 4 2 3 5 7 6 7 7 6 8 10 9 7 9 6 5 6 5 6 5 8 9 11 14 15 16 16 16 15 14 14 13 13 13 14 13 13 12 11 11 11 11 11 11 11 11 10 9 10 10 11 11 10 11 11 11 11 11 12 12 12 11 11 11 10 9 9 10 11 12 12 12 12 13 14 14 15 16 18 17 15 14 15 15 15 16
11 5 4 1 2 2 3 4 2 2 5 4 4 3 2 6 8 7 8 8 10 11 11 11 12 11 11 11 10 10 9 10 9 9 12 15 17 17 18 17 17 16 15 15 15 15 14 14 13 12 11 11 11 11 11 11 11 10 10 10 10 11 11 11 11 11 11 11 11 12 12 12 11 11 11 10 9 8 9 10 11 11 11 11 12 13 13 15 16 18 16 14 14 15 15 15 15
10 5 2 1 3 4 4 5 4 3 5 4 3 5 2 4 6 7 9 11 14 16 15 15 17 21 22 23 22 20 20 19 17 15 13 15 17 19 19 19 19 18 16 16 15 15 15 14 14 12 11 11 11 11 11 11 10 10 10 10 10 10 11 11 12 12 12 11 11 11 12 12 11 11 10 10 9 8 8 9 10 11 10 9 10 11 12 14 16 16 15 14 14 15 16 14 15
8 3 2 4 3 5 6 7 7 4 2 3 2 3 5 3 4 5 8 10 16 18 21 22 23 25 27 28 28 28 27 27 26 23 20 19 19 21 21 20 19 18 17 16 15 14 15 15 14 13 12 11 11 11 11 11 10 10 11 11 10 10 10 11 12 12 12 11 11 11 11 12 11 11 10 10 8 7 8 8 9 10 9 8 9 10 11 13 14 15 15 14 13 15 16 15 14
6 2 2 5 5 5 6 7 7 5 3 4 2 2 5 5 5 4 5 10 12 12 16 19 22 27 27 28 29 30 30 31 31 28 27 26 25 24 23 21 20 18 17 15 13 13 14 15 15 13 12 12 12 11 12 11 10 10 11 11 10 10 10 10 11 12 12 11 11 11 11 11 11 11 10 9 8 7 7 8 8 9 8 7 7 8 10 12 13 14 16 14 12 14 16 16 15
4 2 2 6 5 5 7 8 8 7 5 4 3 3 4 7 7 4 5 10 12 11 14 13 19 27 24 21 22 25 29 31 33 32 31 31 30 28 26 24 23 20 17 14 13 14 14 14 15 14 13 13 13 12 12 11 10 11 11 10 10 10 10 10 11 12 11 11 11 10 11 11 11 11 11 9 7 6 6 7 8 8 8 7 6 7 8 10 11 13 15 15 13 14 15 16 16
2 4 4 5 4 3 7 9 11 10 7 4 3 2 4 9 8 8 7 8 12 13 15 15 19 25 23 21 19 20 23 26 30 33 34 34 32 31 29 27 24 20 17 16 17 17 16 15 15 15 14 14 13 13 12 11 11 11 11 10 10 10 10 10 10 11 11 11 11 11 11 10 11 11 11 9 7 6 6 7 7 8 7 7 6 6 6 8 10 13 15 15 14 14 15 17 17
1 4 5 4 5 3 7 7 8 9 8 6 3 2 6 7 8 13 11 7 15 16 13 19 24 27 28 27 25 24 24 24 26 29 32 34 34 33 31 29 26 23 21 21 19 18 17 16 16 15 15 14 13 13 12 12 13 12 11 11 11 11 10 10 10 10 10 11 11 11 11 10 11 11 10 9 6 5 5 6 7 7 7 7 6 5 5 6 9 12 14 15 15 14 16 18 19
2 4 4 5 6 5 7 6 6 8 8 7 4 6 7 5 8 16 17 22 32 31 25 30 34 34 34 31 30 30 29 28 28 28 29 30 32 33 31 30 27 24 23 22 20 20 19 17 16 16 16 14 13 13 14 14 14 12 12 12 11 11 11 10 10 11 11 11 11 12 11 10 11 11 10 9 6 5 5 5 7 7 7 7 6 5 5 5 8 10 12 14 14 14 16 17 19
4 4 4 5 7 8 11 10 10 9 9 10 8 7 6 7 10 11 21 36 40 38 36 37 38 38 37 36 35 34 34 33 32 31 29 29 29 30 31 31 28 26 25 23 22 22 21 19 17 17 16 15 14 14 14 14 14 13 13 12 11 11 11 10 11 11 11 12 12 12 11 10 10 11 10 8 6 4 4 5 6 7 6 7 6 5 5 4 6 8 11 12 13 14 15 16 17
4 5 4 4 7 10 11 11 13 13 13 15 11 10 12 16 13 12 32 47 40 37 36 33 32 31 29 27 26 28 31 32 33 32 31 31 28 28 30 31 30 28 27 24 23 23 22 21 19 18 17 15 14 15 15 14 14 14 13 11 11 12 11 11 12 12 12 12 12 12 11 10 10 10 10 8 5 3 4 4 5 7 6 6 6 5 4 3 4 6 9 10 11 12 13 14 15
5 6 5 4 7 10 10 11 14 15 14 13 9 10 16 17 11 16 38 41 29 24 20 16 15 15 15 18 21 23 25 27 28 29 30 30 29 29 30 30 31 30 27 24 24 24 22 22 21 19 18 16 16 16 15 15 15 14 12 11 12 13 12 12 13 13 13 13 12 11 11 10 10 10 10 8 5 3 3 4 4 6 6 6 5 4 3 2 2 5 8 9 9 10 12 12 12
3 4 5 7 11 12 10 12 15 13 12 12 10 9 14 11 2 14 27 17 10 10 8 11 14 18 23 26 26 24 23 23 23 25 27 29 30 31 31 30 31 30 28 26 25 24 23 24 23 20 19 19 18 17 17 16 16 15 12 12 13 13 13 14 14 13 13 13 12 11 11 10 9 9 9 8 5 3 3 3 4 5 7 6 5 4 3 3 3 4 7 8 7 8 10 10 9
3 3 6 9 11 12 11 13 15 10 7 10 9 8 12 5 4 20 29 14 13 19 21 25 26 29 31 27 24 20 19 19 20 23 25 27 28 29 30 30 30 28 28 27 24 24 25 25 24 21 20 21 20 19 18 18 17 15 14 14 14 14 14 14 14 14 13 13 12 11 11 11 9 9 9 8 6 3 2 2 3 5 6 6 5 4 4 5 6 6 6 7 7 7 8 9 8
3 3 4 9 8 8 9 9 9 5 3 6 3 7 10 6 12 34 38 25 25 28 30 32 29 28 25 20 18 17 19 20 22 24 23 23 25 27 29 29 28 28 27 25 25 26 26 26 24 22 22 22 22 20 19 18 17 15 15 14 14 15 15 15 15 14 13 13 12 11 11 11 10 9 9 8 6 4 3 2 2 4 6 6 5 4 4 6 7 7 7 6 6 6 6 7 7
2 2 1 6 7 6 6 2 2 4 3 4 4 5 10 7 17 31 27 23 23 24 27 28 25 24 20 18 19 23 28 29 28 26 24 22 22 24 26 27 28 28 27 26 27 28 27 26 25 24 24 24 23 21 19 18 18 16 15 15 15 16 16 15 15 15 14 13 12 11 12 11 10 10 10 9 6 4 3 2 2 3 5 6 6 4 4 5 6 7 7 6 5 4 5 6 6
2 1 2 3 2 5 6 2 3 4 3 5 6 6 9 2 13 20 17 18 16 17 22 21 21 22 22 23 26 33 37 35 31 28 26 24 22 23 23 24 27 28 28 27 27 27 27 27 26 25 25 25 24 22 20 18 18 17 16 16 16 17 17 16 16 15 15 14 13 12 12 12 11 10 10 9 7 5 3 2 1 2 4 5 6 5 4 4 5 6 6 6 5 4 4 5 6
2 1 4 3 2 6 8 3 3 2 1 4 5 5 8 6 12 12 8 11 8 12 22 25 29 31 32 35 36 39 40 36 32 29 28 26 24 24 23 23 24 25 26 27 26 26 27 28 28 27 25 25 25 23 20 18 18 18 17 17 17 17 17 17 17 16 15 15 14 13 13 12 11 11 10 9 7 6 4 3 2 1 3 5 5 5 4 4 5 5 6 6 5 4 4 5 5
3 0 4 3 3 4 6 3 1 1 1 1 3 4 7 5 10 13 8 11 13 19 29 34 38 40 39 39 39 40 40 38 36 32 29 28 27 27 27 25 23 24 24 25 26 26 27 29 29 27 26 25 25 23 20 19 19 19 18 18 18 18 19 18 17 17 16 16 15 14 14 13 12 12 10 9 8 6 5 3 2 2 2 4 4 4 4 3 4 5 5 5 5 4 4 5 5
3 1 2 4 3 2 5 4 3 2 2 2 3 5 12 10 12 26 27 22 22 24 30 35 38 40 41 40 40 41 41 41 36 30 26 24 24 26 29 28 25 24 24 25 25 25 26 28 29 27 25 25 25 24 21 20 20 20 19 19 20 20 19 20 19 18 17 16 16 15 15 14 13 12 11 10 9 7 6 4 3 2 2 3 4 4 4 3 3 5 5 5 5 4 4 4 4
1 2 2 3 3 2 4 4 2 2 1 4 4 7 18 15 11 26 34 26 21 27 30 31 35 39 41 42 41 39 38 34 27 21 19 18 18 20 26 29 28 26 25 25 25 25 25 27 28 27 25 25 26 24 22 22 22 22 22 21 21 21 21 21 20 19 18 17 17 16 16 15 14 13 12 11 10 8 7 5 5 4 3 3 3 3 3 3 3 4 6 6 5 4 4 3 3
4 5 4 2 5 4 5 6 5 1 2 6 7 8 16 17 12 16 29 27 19 28 31 27 33 36 38 39 37 33 30 25 18 16 17 16 16 17 21 27 28 28 26 26 26 26 27 28 29 28 26 25 26 26 25 24 24 24 24 23 23 22 22 22 21 20 19 18 18 17 17 16 15 14 13 12 11 10 8 7 6 5 4 4 4 3 3 4 4 4 6 7 6 4 4 4 3
4 3 1 3 5 6 6 5 6 1 2 7 5 7 13 18 15 13 24 25 18 23 25 24 30 32 33 34 32 30 26 21 16 14 14 14 16 17 19 24 28 29 28 27 27 27 27 28 29 29 27 26 27 29 28 27 26 26 25 24 23 22 21 22 21 20 20 19 19 18 18 17 16 15 14 13 12 11 10 8 7 7 6 5 5 4 4 5 5 5 5 6 6 5 5 6 5
3 1 2 4 4 6 7 3 5 2 1 5 2 5 14 18 16 16 19 17 14 19 17 21 27 27 28 29 28 27 22 18 15 12 11 12 14 16 18 22 26 30 30 28 26 26 27 28 29 28 27 27 29 29 28 27 26 25 24 22 21 20 21 21 20 20 19 19 19 18 18 18 17 16 15 14 13 12 12 10 9 8 7 7 6 6 5 6 6 6 6 6 6 6 6 7 7
3 2 1 4 3 5 7 4 5 2 1 5 5 7 15 19 17 17 17 12 16 23 22 24 26 25 27 27 24 22 18 16 13 10 9 10 12 14 17 20 23 27 28 26 25 25 27 29 29 28 27 28 29 29 29 27 26 25 24 22 20 19 20 20 20 20 19 19 20 19 20 19 19 18 16 15 14 13 13 12 10 9 9 8 7 7 7 7 8 8 7 7 7 8 8 8 8
2 3 2 4 3 2 4 4 5 3 1 4 6 6 12 14 12 13 14 10 14 21 22 23 23 24 27 24 21 20 17 16 13 9 8 9 11 11 14 17 20 23 25 25 25 25 27 28 29 28 28 28 29 29 29 27 26 26 26 24 22 21 20 20 20 21 21 21 21 21 21 20 20 19 18 17 15 14 14 13 12 11 10 9 9 9 9 9 9 9 9 9 9 9 9 10 10
2 4 5 4 3 3 5 5 6 4 2 2 5 6 7 7 7 8 8 5 8 11 12 17 18 17 18 15 13 13 14 15 14 11 8 9 11 11 12 14 17 21 24 25 24 24 25 26 28 28 28 28 29 29 29 28 28 28 28 27 25 24 23 23 23 23 23 23 23 22 21 21 21 20 19 18 16 15 14 14 13 12 11 11 10 10 10 11 11 11 11 11 10 9 9 10 11
5 4 6 5 3 4 5 6 6 5 4 3 5 5 6 6 6 9 8 6 9 7 5 14 18 11 6 6 6 8 10 13 14 12 9 10 11 11 11 13 16 19 21 22 22 22 22 24 26 28 27 27 28 29 30 29 29 29 30 29 27 26 26 26 25 24 23 22 22 21 21 21 21 21 20 19 17 16 15 15 14 13 13 12 12 12 12 12 12 13 13 12 12 11 11 11 12
3 3 3 4 2 0 3 5 4 2 4 4 4 2 6 6 7 11 9 9 13 11 6 12 15 8 2 6 9 9 11 13 13 11 9 10 10 10 10 10 13 15 17 19 21 22 22 23 25 26 26 26 27 29 30 30 30 30 30 29 27 26 26 24 22 21 21 20 20 21 22 22 22 22 21 19 18 17 16 16 15 15 14 14 14 13 13 13 13 14 14 14 13 13 13 13 13
3 4 3 4 4 2 0 4 3 1 4 5 3 4 3 6 7 10 6 8 12 13 10 9 9 8 2 9 11 9 12 13 13 11 9 9 10 9 8 7 9 12 14 18 20 21 21 22 23 25 25 26 26 29 30 31 31 30 29 28 27 27 25 23 21 21 21 20 21 21 22 23 22 22 22 21 20 19 18 17 17 16 16 15 15 14 13 14 15 15 15 15 15 15 15 14 14
3 4 4 4 4 3 3 5 2 1 3 5 3 2 1 6 7 6 4 6 10 11 10 8 7 8 5 12 14 10 12 14 14 12 10 9 9 8 7 7 8 10 12 15 18 20 21 22 23 25 25 25 26 28 30 31 31 30 29 28 28 27 25 23 23 23 22 22 21 21 22 23 23 23 23 22 21 20 19 19 19 18 17 16 16 15 15 15 16 16 16 16 16 16 16 16 16
3 4 3 3 4 4 4 5 3 3 3 3 3 2 1 5 7 4 0 2 7 8 7 7 10 12 13 19 18 13 15 17 14 13 11 10 9 7 7 8 8 9 11 13 16 20 22 23 24 25 25 26 26 28 30 31 31 30 29 29 28 27 26 25 25 25 24 23 23 22 22 23 24 24 23 23 22 22 21 21 21 19 18 17 17 17 16 16 16 16 16 16 16 17 17 17 17
4 4 3 4 4 4 3 3 4 4 2 5 4 1 1 3 6 5 3 3 4 3 6 8 11 16 20 23 21 20 22 20 14 12 10 10 9 7 6 7 9 10 12 14 16 19 22 23 24 25 25 26 27 27 29 30 31 31 30 29 28 27 27 26 26 25 24 24 24 24 23 23 24 24 24 24 24 24 23 22 22 21 20 19 19 18 18 17 17 17 17 17 17 18 18 18 18
4 3 3 3 4 4 4 4 4 3 4 5 4 2 2 3 6 5 4 5 4 2 6 11 12 17 25 29 29 28 26 18 12 11 10 9 8 6 4 5 9 11 13 14 15 17 20 22 23 24 26 27 27 27 29 30 31 32 31 30 29 28 28 28 27 26 25 24 24 24 24 25 25 25 26 26 25 25 24 23 23 22 21 20 20 19 19 19 19 19 18 18 18 19 19 19 19
5 4 4 4 3 4 3 4 1 2 5 4 3 2 2 6 9 9 11 12 9 7 9 12 12 17 27 32 31 28 22 15 11 9 8 7 7 5 3 4 6 9 12 13 14 16 18 20 22 23 24 25 26 27 28 30 31 32 32 31 30 29 29 29 28 27 25 25 24 25 26 26 26 26 27 26 25 24 24 23 23 23 22 21 21 21 21 20 20 20 19 19 19 20 19 20 20
3 4 4 3 2 2 2 4 2 3 3 2 3 2 2 6 8 9 11 10 10 10 15 19 19 22 28 29 27 23 17 10 8 8 6 5 4 4 2 2 3 5 8 11 14 16 17 19 21 22 23 24 26 27 28 29 31 32 32 32 30 30 30 30 29 28 26 26 25 26 26 26 26 26 26 25 24 24 24 24 24 24 23 23 22 22 22 22 22 21 21 21 21 21 21 21 21
3 4 5 3 4 4 3 3 3 4 3 3 3 1 3 4 5 7 7 8 12 14 17 21 21 21 22 21 20 18 13 8 7 7 5 4 4 3 1 1 1 2 5 8 12 16 18 20 21 23 23 24 26 27 28 30 30 31 32 32 32 31 31 30 30 29 27 27 27 27 27 26 26 25 24 24 24 24 25 24 24 24 25 25 24 24 24 24 24 23 23 23 23 23 23 23 23
1 2 5 2 4 4 2 3 4 1 3 3 2 3 5 5 9 13 9 8 10 9 9 11 12 12 13 15 16 12 9 7 7 7 6 5 5 4 2 1 0 1 3 6 9 13 16 19 21 23 23 25 26 27 29 29 29 30 32 32 33 32 32 32 31 30 29 28 27 28 28 27 26 24 23 23 24 24 25 25 25 25 26 26 26 26 26 26 26 26 25 25 25 25 25 25 25
2 2 2 4 3 5 3 1 1 3 1 4 1 3 5 4 9 11 7 8 9 8 6 6 12 15 13 14 14 10 7 6 7 9 8 8 7 6 4 2 1 2 3 5 7 10 13 16 19 22 23 26 27 28 29 30 30 31 31 33 34 34 34 33 31 30 29 28 28 28 28 28 27 25 24 23 23 24 25 26 27 27 27 27 28 28 28 28 28 28 27 27 26 26 26 26 25
3 2 4 3 2 4 4 1 3 3 2 4 1 3 5 3 5 7 8 10 11 10 8 8 13 16 15 16 15 13 10 7 8 9 9 10 11 9 7 6 5 5 5 6 7 9 12 15 18 20 22 25 27 28 29 30 31 31 32 33 34 35 34 33 31 30 30 30 30 29 29 30 29 27 26 24 24 24 26 27 29 29 29 29 30 30 30 30 30 30 29 28 27 27 27 27 27
3 2 2 2 2 1 2 1 1 1 2 4 3 4 3 4 5 6 9 10 11 11 9 8 10 11 14 18 16 14 11 8 7 8 8 10 12 12 11 10 9 9 8 8 9 11 12 14 17 20 21 23 24 26 28 29 31 32 32 33 34 35 34 33 32 32 32 32 30 30 30 30 29 28 27 26 26 26 26 28 30 31 31 31 31 32 32 32 31 31 31 30 30 29 29 29 29
2 1 2 1 2 3 2 2 3 2 2 3 4 4 3 7 7 6 10 12 10 10 9 8 8 11 16 18 15 14 13 9 7 7 8 9 10 11 12 11 11 12 13 14 14 15 15 15 16 18 20 22 23 25 27 29 31 32 32 33 34 34 34 33 33 33 34 33 31 30 30 30 29 30 29 28 28 28 27 28 29 31 32 33 33 34 34 33 33 33 33 33 32 31 31 31 31
2 0 1 1 1 2 0 1 2 3 2 2 2 4 7 7 5 8 13 13 10 9 8 8 10 16 21 19 17 18 16 13 11 10 10 9 7 8 9 12 16 17 18 19 20 20 19 17 16 16 18 20 23 25 26 28 29 30 32 34 34 34 34 34 34 35 35 34 32 31 30 30 31 31 31 31 31 30 29 29 30 31 32 34 35 35 35 35 35 35 35 35 35 34 34 33 33
4 5 4 4 4 4 1 3 1 2 2 4 2 4 10 6 5 8 12 11 9 8 7 8 11 18 21 19 19 21 20 17 15 13 13 13 12 12 16 23 26 23 21 20 21 23 23 21 19 17 18 18 20 23 26 27 28 30 32 32 32 33 34 35 35 36 36 35 34 32 31 32 33 34 33 33 33 32 31 31 31 32 32 33 34 36 36 37 37 37 37 37 38 37 36 36 36
Wind_Direction
294 293 292 295 307 316 333 0 359 334 68 254 279 230 258 247 223 254 259 244 238 222 185 173 156 161 156 170 227 261 252 197 183 159 213 243 170 189 185 186 196 205 219 223 228 236 243 245 251 252 255 258 264 272 277 282 285 290 298 297 292 290 291 291 291 292 290 294 299 304 309 311 313 318 322 324 326 327 329 327 328 327 325 330 334 340 344 344 340 331 325 320 321 326 333 337 335
290 286 290 291 306 319 319 23 52 324 29 304 281 189 260 311 292 235 225 203 194 187 174 182 172 182 212 292 303 308 271 238 231 229 254 242 174 195 198 204 209 212 218 223 232 239 243 247 250 253 257 260 266 272 277 280 282 290 293 291 286 286 288 290 291 289 290 294 299 306 309 312 315 320 325 326 328 330 331 329 331 329 329 335 338 342 346 344 338 332 331 330 334 339 340 338 335
285 281 285 285 308 335 338 34 92 51 38 275 276 241 267 296 239 239 228 203 162 140 164 176 181 204 234 284 291 258 263 253 243 243 256 240 207 204 213 234 234 226 220 220 232 237 242 245 248 252 257 261 267 271 274 277 281 286 286 283 281 284 287 289 290 289 291 293 300 308 310 313 317 323 326 327 331 332 332 331 334 333 334 339 340 341 346 344 338 334 336 337 338 342 343 339 339
280 276 277 280 316 354 61 42 147 134 207 242 276 270 238 220 243 261 257 216 167 148 168 171 187 223 229 249 263 256 264 263 250 240 240 235 228 228 239 255 251 237 224 222 230 235 241 244 247 252 257 261 266 270 272 276 279 281 280 276 277 283 287 289 290 289 291 293 301 307 310 313 317 325 327 328 333 333 334 335 336 336 338 343 342 342 346 345 338 333 338 338 336 344 346 342 341
274 267 251 262 331 10 93 64 114 134 218 194 230 270 237 222 250 281 296 212 191 161 169 177 201 249 238 246 244 248 265 265 255 237 232 233 235 243 252 256 242 236 240 236 233 237 243 244 249 252 257 261 264 269 270 273 275 276 273 272 277 283 288 290 289 289 290 293 300 307 310 313 319 326 327 330 334 333 336 337 338 339 342 347 349 348 349 345 340 335 341 343 338 345 347 343 338
262 241 209 203 131 147 119 201 213 212 228 171 200 264 247 231 251 276 301 155 185 173 191 200 250 306 272 256 237 234 250 276 266 236 234 231 236 250 252 249 234 239 253 247 240 242 245 247 251 254 258 261 263 266 267 271 272 273 270 270 276 282 288 289 288 288 289 293 298 306 310 314 322 327 328 331 334 334 337 340 340 341 345 349 351 352 351 344 344 342 344 348 343 346 349 344 338
238 204 175 144 121 93 129 204 216 235 239 177 195 256 269 279 269 260 197 146 177 203 225 228 267 330 277 264 249 246 245 246 253 252 241 228 231 245 251 249 239 243 254 249 246 246 247 250 251 252 255 258 261 263 265 268 271 270 266 270 276 282 287 288 288 287 289 293 297 304 309 315 323 328 329 331 334 335 338 341 340 342 348 349 350 351 350 346 349 348 346 350 348 350 355 350 345
216 191 158 143 95 23 129 219 231 220 239 215 220 249 269 300 283 197 186 197 191 219 225 233 229 9 265 264 257 253 248 244 244 248 247 229 224 231 244 251 252 252 254 251 248 250 252 252 251 251 252 256 259 260 264 266 268 267 264 269 276 282 287 287 287 286 289 292 296 302 307 314 323 329 328 330 335 336 338 340 340 343 349 351 353 351 348 349 353 351 347 350 352 355 359 353 345
197 186 155 135 175 318 259 265 259 233 250 256 253 254 267 291 262 198 201 236 233 222 238 237 189 186 280 285 261 260 264 254 245 244 243 234 224 229 243 252 259 257 256 254 249 252 253 252 252 252 252 254 257 260 263 264 265 263 264 269 276 282 285 286 285 286 289 292 295 299 305 313 322 329 327 330 335 336 338 338 340 345 350 353 356 354 351 354 354 353 351 351 353 356 355 349 343
182 182 174 112 152 261 289 264 250 252 249 256 272 269 276 274 228 202 206 240 238 227 268 231 201 223 270 295 271 266 265 264 256 249 244 240 240 244 252 254 255 254 255 252 248 250 250 254 254 254 255 255 258 260 261 264 264 262 265 270 277 281 284 285 284 285 287 290 293 297 303 311 320 327 327 332 335 333 336 337 340 346 351 353 356 355 354 359 357 357 356 352 354 356 351 344 345
173 167 158 130 153 227 247 246 254 258 265 290 288 276 276 243 204 204 214 254 249 226 225 183 204 235 253 278 270 267 266 270 268 256 245 242 245 249 248 248 248 247 249 249 249 249 249 253 255 257 258 258 258 259 261 262 262 261 266 272 277 280 282 284 283 283 285 289 291 295 300 308 317 325 328 332 332 332 335 337 341 348 351 353 354 353 355 359 359 1 359 355 356 356 348 343 352
182 122 114 145 193 216 218 231 260 270 301 306 277 276 253 194 181 206 206 232 239 231 233 204 208 240 224 263 269 274 278 276 266 255 244 237 238 240 239 239 243 243 242 245 248 249 249 249 252 257 258 258 257 258 260 261 261 261 266 274 277 279 282 283 283 282 284 287 290 293 298 306 314 322 328 329 329 331 335 337 343 349 351 352 352 352 355 357 358 360 359 356 357 353 343 346 2
188 137 113 161 195 184 176 214 270 301 317 268 236 251 178 182 201 227 195 214 224 221 256 224 223 242 239 262 274 279 283 277 259 249 244 235 232 233 234 238 243 243 241 243 245 247 248 247 249 255 257 257 257 258 261 262 262 263 269 276 278 279 280 281 282 282 283 285 288 291 295 303 311 320 326 325 326 329 334 337 344 350 351 352 351 353 356 356 356 354 355 355 355 349 339 349 5
199 169 141 186 178 132 160 219 271 274 281 256 245 205 188 202 226 239 208 236 243 227 261 244 224 241 262 263 275 277 275 270 256 247 244 236 233 232 235 239 243 241 240 240 240 245 245 246 249 253 257 257 259 259 261 263 262 264 270 276 278 279 280 280 280 279 281 283 286 289 293 299 307 317 322 321 322 326 332 337 345 350 350 353 351 355 359 358 357 351 352 354 352 345 339 351 3
208 185 128 150 72 176 200 220 212 173 246 247 222 198 205 234 241 251 235 237 264 251 253 248 210 222 249 225 262 285 282 283 268 253 246 240 238 235 236 238 241 241 240 239 238 243 243 246 249 252 258 257 260 259 259 262 264 267 269 275 279 281 281 280 279 278 279 280 284 286 290 296 304 314 318 316 316 323 331 336 344 350 351 355 353 359 4 1 357 353 357 356 351 343 339 353 1
208 185 86 131 209 231 216 204 165 146 253 242 196 213 234 248 236 248 252 240 265 264 249 240 218 226 245 239 260 281 286 294 295 277 255 245 243 240 241 240 242 244 241 240 240 242 242 244 249 254 259 258 258 257 258 261 265 269 269 273 278 281 282 280 280 278 277 278 281 284 288 293 301 310 314 311 311 320 330 336 342 350 353 355 357 5 8 3 359 358 1 358 351 341 340 354 358
198 183 80 225 203 206 202 192 183 176 256 266 212 211 200 273 245 245 268 255 258 262 254 251 241 244 256 261 267 272 275 279 282 282 270 255 249 245 245 243 244 245 241 241 243 244 244 244 248 253 257 258 257 255 255 257 262 269 270 272 274 278 281 281 281 279 277 277 279 282 286 291 297 306 309 307 308 318 328 333 340 349 354 355 359 9 8 3 0 359 1 359 354 344 343 353 353
185 165 183 218 194 196 192 184 193 176 241 265 218 195 192 266 281 267 283 261 257 262 259 258 256 257 263 268 269 268 269 270 271 271 269 262 255 250 249 248 248 246 242 241 244 248 248 245 245 250 255 257 256 253 251 253 257 263 268 271 272 276 279 281 281 278 277 277 278 280 283 289 295 302 304 304 306 315 324 329 340 348 353 355 358 8 6 1 1 359 360 2 2 355 350 351 350
181 127 189 227 199 204 206 185 192 184 234 248 246 237 207 244 277 289 286 266 266 266 264 262 262 267 271 273 270 268 267 266 266 266 265 262 259 258 256 254 252 249 244 241 245 251 250 246 245 248 251 254 253 250 248 250 254 258 263 268 270 273 275 277 276 275 275 275 277 278 281 287 292 298 300 301 305 311 320 326 339 348 349 351 354 4 2 358 1 359 359 5 10 6 358 357 357
197 145 213 247 215 231 245 223 223 224 244 265 265 248 220 251 268 268 268 280 280 259 259 258 261 273 284 287 280 274 271 267 265 263 263 262 261 260 259 258 257 255 251 246 245 247 248 246 247 248 247 249 250 246 245 247 250 253 258 264 268 269 270 270 270 271 272 275 276 276 279 285 290 295 296 298 302 306 317 326 337 345 344 344 348 357 355 350 356 358 2 9 12 10 9 10 9
190 164 204 237 184 233 256 246 254 246 243 255 250 246 263 269 262 250 258 296 284 256 259 262 266 281 293 298 292 283 277 272 266 262 262 262 261 261 260 261 261 259 252 244 241 244 248 247 247 246 245 246 247 246 245 245 245 249 254 258 261 264 266 266 267 270 272 276 276 276 278 284 288 291 293 296 299 303 318 327 333 341 337 336 341 345 345 341 346 357 5 11 11 11 17 21 22
182 208 226 216 165 212 270 267 267 250 234 239 236 243 270 269 253 252 240 237 262 265 278 280 281 288 291 291 288 283 279 276 271 265 263 261 262 262 262 262 261 256 246 240 241 246 248 248 247 245 243 243 243 244 242 240 242 244 246 249 253 257 260 263 268 271 274 275 275 275 277 281 285 287 290 293 295 305 323 327 329 335 330 327 333 336 334 334 341 356 8 14 11 11 18 24 27
231 259 258 237 203 223 274 281 276 256 232 231 238 253 265 272 272 265 243 239 261 273 280 282 285 285 284 283 280 278 276 275 273 270 269 266 265 265 265 264 263 260 251 246 246 246 247 247 247 245 242 241 240 238 236 238 242 241 240 242 247 250 254 261 267 270 272 273 273 273 273 276 280 283 286 289 293 310 325 326 325 326 323 319 324 332 331 334 344 359 12 16 13 9 16 23 28
202 261 278 257 238 242 263 273 272 264 248 250 259 266 264 257 275 283 260 258 268 278 282 283 285 283 279 276 275 275 274 272 270 271 271 271 270 269 268 267 266 264 256 250 247 245 246 248 248 246 242 239 236 234 234 239 241 239 238 241 245 249 253 259 264 266 267 267 268 269 269 271 275 278 283 286 292 313 325 325 322 319 316 312 316 326 327 341 356 6 15 17 15 10 14 23 27
193 236 262 255 254 258 269 274 270 268 261 262 262 262 257 258 273 283 270 271 277 282 285 285 283 279 274 273 277 277 275 273 270 268 268 267 270 270 267 264 261 258 254 249 246 245 246 248 249 247 241 237 233 233 236 237 238 238 239 242 245 249 252 255 259 261 261 261 261 263 264 267 269 274 279 283 290 316 328 323 317 314 311 308 309 315 319 341 3 9 13 15 14 10 15 27 29
207 222 251 259 269 278 282 276 271 268 262 258 252 258 262 264 278 275 271 277 283 283 284 281 281 279 277 284 292 289 281 277 273 271 268 266 266 266 263 261 258 254 253 249 246 245 244 246 248 247 241 234 230 233 237 236 236 239 239 241 243 246 249 251 255 256 256 255 256 259 260 263 266 271 278 280 289 316 330 323 312 310 309 305 303 305 305 309 334 353 4 8 7 7 15 26 34
235 240 268 269 274 283 281 271 269 265 260 250 236 258 268 260 259 270 270 275 278 275 265 266 280 285 286 291 294 293 284 281 280 276 270 265 261 260 260 259 257 253 251 247 244 243 241 243 246 246 241 232 228 231 235 236 237 239 236 235 237 241 244 247 251 252 253 252 253 256 257 260 262 267 274 276 287 315 327 322 311 309 307 303 300 296 286 275 288 318 344 356 355 2 7 13 29
293 309 295 283 290 292 268 258 263 256 262 253 235 266 272 250 167 247 255 257 271 279 278 278 283 285 287 289 291 290 288 293 289 278 273 270 266 264 261 259 257 256 252 248 244 242 240 242 245 245 241 232 229 231 233 234 235 236 233 232 235 238 242 246 249 250 251 250 250 252 254 256 258 264 270 273 284 304 317 319 311 308 306 304 300 292 277 270 281 297 321 340 341 354 356 354 10
299 358 312 298 332 316 263 255 262 228 247 255 215 287 268 204 222 248 256 265 275 281 283 285 287 287 289 286 282 283 294 304 295 283 282 282 277 272 266 261 260 258 255 253 248 244 241 241 244 245 242 234 230 230 232 233 234 233 231 232 235 238 241 245 248 250 249 249 248 248 249 252 255 260 265 270 278 289 302 312 312 310 307 306 302 296 284 276 282 294 309 326 332 343 344 339 347
292 43 49 311 348 324 276 311 255 181 212 215 132 287 263 201 236 254 266 273 276 281 282 284 286 288 289 282 275 279 291 299 294 288 286 284 282 277 269 264 261 259 256 255 250 245 242 240 243 244 242 236 230 229 230 231 232 231 231 232 235 237 241 245 247 249 249 248 246 244 245 247 251 255 260 265 270 280 293 299 310 313 306 305 308 308 300 289 290 300 309 318 326 331 330 326 328
305 4 47 350 345 283 295 353 162 160 217 195 142 256 263 266 269 270 279 280 281 283 281 286 289 291 291 284 279 282 289 293 291 286 280 277 277 276 271 264 260 258 256 253 249 245 243 241 241 243 243 238 231 229 229 229 231 231 231 232 235 238 241 244 245 248 249 248 244 241 241 244 247 251 254 260 266 272 282 292 303 312 307 305 310 317 315 304 302 306 310 312 317 319 308 310 317
19 320 307 345 181 268 307 329 157 153 247 187 154 248 272 290 287 289 288 274 275 284 289 294 292 292 290 287 285 286 288 289 287 282 276 272 270 269 267 263 259 256 254 251 248 244 241 239 240 242 243 238 231 228 228 228 229 229 230 232 234 237 240 243 244 245 247 246 242 239 239 241 244 247 250 256 262 266 271 281 286 293 303 301 306 319 326 315 306 304 305 302 303 303 295 300 313
3 194 261 273 214 284 320 318 225 221 86 192 200 257 285 276 284 297 290 273 285 294 293 291 291 292 291 289 289 289 289 289 287 280 275 272 267 262 260 259 258 256 252 248 245 241 238 236 236 239 241 238 231 227 225 226 227 229 229 231 233 235 239 242 243 243 244 243 240 238 238 239 242 245 247 252 257 260 263 269 272 268 285 294 299 313 324 320 306 299 294 289 286 284 286 295 305
319 5 251 255 232 260 304 310 323 17 96 238 240 252 266 264 282 285 281 282 288 288 284 285 288 290 289 290 289 288 290 290 288 283 279 275 267 259 255 253 253 253 251 247 242 237 235 233 234 236 238 236 230 224 224 224 226 228 228 229 232 235 237 240 242 242 242 240 237 237 237 237 240 243 245 249 254 254 255 259 261 259 256 279 290 301 319 320 300 292 283 275 272 269 271 279 289
206 207 215 289 289 246 260 279 304 14 38 248 246 260 268 270 272 277 281 284 281 277 277 279 282 284 286 288 288 290 292 292 292 290 287 280 269 259 251 247 244 245 248 245 240 234 232 230 230 233 235 234 227 222 221 222 224 226 227 228 230 233 235 238 241 242 241 239 237 236 237 236 237 241 242 246 251 251 250 250 252 252 246 256 271 284 305 305 290 282 276 272 263 252 257 261 265
147 173 164 251 284 269 246 256 268 335 317 261 238 250 272 280 274 273 282 284 277 274 277 276 277 280 283 286 289 292 294 296 303 301 289 279 270 260 250 243 237 237 242 243 239 232 228 226 226 227 230 231 225 220 217 218 221 224 226 228 231 234 236 238 241 242 241 239 238 237 237 236 235 238 240 243 248 249 246 245 246 246 243 243 247 259 277 284 279 273 272 275 266 239 223 226 214
111 140 148 253 261 282 267 266 289 331 268 264 239 253 274 280 280 273 277 282 277 271 275 275 274 276 279 284 289 292 296 301 307 301 289 279 269 259 250 241 232 230 234 238 236 231 227 224 224 225 227 226 222 220 218 218 221 224 228 231 233 236 238 240 242 243 242 240 239 239 239 238 235 235 237 239 243 247 247 243 243 243 241 240 238 238 246 262 267 265 264 264 262 246 217 209 196
75 174 275 285 248 270 272 275 303 325 225 267 344 316 286 282 284 278 273 274 266 265 270 271 272 276 279 283 288 294 299 303 307 305 297 285 271 259 248 238 230 227 229 234 236 232 228 224 224 225 226 225 222 221 221 222 225 229 234 237 239 241 241 243 244 245 245 243 242 240 240 238 236 234 234 236 239 243 245 244 241 241 240 239 237 233 230 245 257 257 257 255 250 244 227 213 200
88 150 244 291 259 280 295 319 323 337 204 275 360 345 291 284 285 280 272 256 257 263 262 265 271 275 278 283 289 295 300 303 309 311 304 291 274 260 249 238 229 226 227 232 235 232 228 224 223 223 224 224 222 222 222 224 228 231 236 238 240 242 244 245 246 246 244 243 241 239 238 237 235 234 232 234 237 239 242 243 243 240 239 238 236 235 228 231 247 252 253 254 245 234 224 216 209
124 147 164 269 275 316 290 306 320 309 216 279 322 314 283 288 292 284 277 253 252 263 263 266 269 271 278 283 285 288 297 307 313 313 310 299 284 268 253 242 232 226 225 228 230 229 227 225 223 222 222 223 222 223 223 224 227 230 233 235 235 237 240 242 242 243 241 240 240 237 236 235 234 234 232 234 236 238 239 240 243 241 239 240 236 236 234 230 239 249 250 248 248 241 229 222 216
284 192 192 237 257 232 241 285 317 317 341 334 328 314 285 301 315 302 295 266 251 265 275 280 281 279 281 283 285 291 303 313 313 309 311 305 296 283 259 244 233 227 225 225 227 228 227 226 224 222 222 223 222 222 222 223 224 227 229 230 230 231 232 234 235 236 236 237 238 237 235 234 233 234 232 234 237 238 238 237 241 240 238 241 240 237 235 232 234 241 248 248 252 253 244 235 226
306 239 215 227 238 252 275 313 339 3 354 344 19 356 293 307 317 286 292 308 288 288 307 297 296 291 273 290 326 334 330 326 319 309 305 307 305 293 269 247 233 227 225 225 226 227 227 225 225 224 223 223 222 222 221 222 225 227 229 229 229 230 231 234 238 240 240 241 242 240 238 235 234 234 233 234 237 239 239 236 238 239 237 238 240 239 235 233 234 237 244 248 250 250 246 242 236
303 263 213 203 174 164 322 348 12 14 294 296 66 85 268 303 295 267 286 312 295 299 311 291 282 258 244 340 354 1 349 335 325 314 304 306 307 297 282 258 240 229 223 224 223 224 225 225 226 226 225 224 222 222 221 222 225 227 230 233 235 236 238 243 248 250 249 248 247 243 240 237 235 235 235 235 238 240 240 238 237 238 237 236 237 240 238 235 234 234 239 243 244 244 243 245 244
247 244 144 118 99 108 137 55 53 248 277 312 38 128 249 295 270 260 297 311 293 299 304 288 259 225 249 352 355 0 347 333 328 320 305 305 307 299 285 259 238 227 222 223 221 222 225 227 228 227 227 226 225 223 222 223 226 227 230 233 236 239 242 247 251 253 252 250 248 244 241 238 235 234 234 235 237 240 241 239 238 237 237 237 238 240 240 237 235 234 236 238 241 243 245 246 246
244 222 138 120 107 122 122 82 65 333 348 324 331 100 236 275 272 286 324 299 291 299 296 288 268 241 270 333 338 345 341 333 327 317 302 301 307 300 276 244 226 222 222 223 222 223 227 228 229 228 227 227 227 225 223 225 227 229 232 234 237 240 242 245 247 249 249 249 249 247 243 239 235 233 232 233 236 239 241 240 239 238 237 238 239 239 239 238 238 237 236 238 240 244 247 247 246
206 165 107 72 75 78 73 78 78 33 19 274 289 45 249 268 281 297 334 248 273 288 287 275 283 282 293 316 320 320 325 326 320 312 302 298 306 301 269 240 221 217 217 219 221 223 226 229 230 230 228 228 228 227 225 226 228 230 232 235 238 240 241 243 245 246 247 246 246 245 243 240 236 234 232 233 236 238 241 241 240 240 239 239 239 239 240 240 241 240 238 237 237 239 242 244 246
135 117 47 29 31 37 44 53 72 55 316 262 277 309 165 280 282 258 198 202 229 285 308 290 295 302 303 311 314 312 320 323 316 311 303 297 304 304 276 244 223 216 213 216 220 224 227 230 232 232 230 229 229 228 227 227 229 231 234 236 240 241 242 244 246 247 247 245 244 243 242 240 237 235 233 233 235 237 240 242 242 242 241 241 241 242 242 242 242 241 240 238 237 238 239 240 243
102 86 47 27 349 9 26 358 43 79 257 265 295 292 181 244 266 250 249 262 235 227 297 294 300 304 305 311 311 312 320 320 310 309 303 296 301 303 287 245 227 221 218 218 221 226 230 232 234 233 232 231 230 229 229 229 231 233 236 238 241 243 244 245 247 249 249 247 246 245 243 241 238 235 233 233 234 237 240 243 244 244 243 244 245 245 244 244 244 243 242 242 241 240 240 240 241
75 82 67 52 342 356 359 318 2 197 248 273 323 319 209 247 262 264 271 277 266 239 253 269 276 287 297 304 306 311 318 313 305 307 298 293 296 293 277 237 230 228 225 225 226 229 233 234 236 236 235 234 233 231 230 231 233 235 237 239 241 244 246 247 249 250 250 249 246 245 244 243 242 239 237 237 237 239 243 245 247 247 247 247 248 248 246 246 246 247 246 246 245 244 243 242 242
113 128 110 114 108 53 301 281 284 269 264 278 306 321 265 275 274 255 251 260 265 260 264 268 269 276 286 294 301 310 315 308 304 301 286 282 280 269 251 220 223 229 229 231 230 230 233 235 237 239 239 238 236 234 234 234 236 237 238 240 242 245 247 248 249 250 249 249 246 244 244 244 245 244 243 242 242 244 246 249 250 250 250 249 248 248 248 248 248 248 248 247 247 247 245 244 242
161 155 122 137 151 151 232 240 232 267 293 294 302 312 212 234 276 266 250 259 268 267 268 270 272 275 280 289 301 310 313 312 303 287 270 264 261 248 223 183 202 232 235 237 235 232 233 233 236 238 239 240 240 238 237 238 239 239 239 241 242 245 247 249 249 250 250 249 247 245 243 244 244 244 243 243 243 244 246 249 251 252 252 251 250 250 249 249 249 249 249 249 248 248 247 246 244
193 135 108 162 183 149 175 196 185 208 322 299 265 242 223 226 282 290 296 300 290 283 273 269 279 288 289 295 308 318 317 312 295 274 259 253 249 235 217 173 296 279 260 257 252 244 240 237 236 238 239 241 243 243 242 242 243 242 241 241 242 244 247 248 248 248 248 248 248 246 244 244 244 244 243 243 243 243 245 247 249 251 252 251 251 251 251 252 251 251 250 249 249 249 249 248 247
160 134 170 223 182 118 113 223 357 65 326 279 246 256 286 307 288 294 331 332 314 316 316 306 309 315 313 310 324 339 330 312 294 275 260 253 250 243 235 221 253 292 292 283 273 263 255 247 241 241 241 241 242 243 244 245 245 245 244 242 243 244 246 248 249 249 249 249 248 247 246 245 245 245 246 246 247 247 246 246 247 248 249 249 250 250 251 252 252 251 250 250 250 251 251 251 249
118 166 220 219 131 84 91 251 346 40 232 272 282 252 287 319 289 310 335 317 303 306 314 321 318 321 323 324 334 343 339 329 306 286 268 257 254 253 250 247 253 267 280 285 278 268 262 256 250 244 242 243 243 244 245 247 248 248 247 245 244 245 246 249 251 251 250 250 249 248 247 246 246 247 249 250 251 251 249 248 248 248 249 249 249 249 250 251 252 252 251 251 251 251 252 252 250
114 181 216 125 140 120 77 153 234 258 256 283 296 282 265 227 239 290 296 284 285 293 303 315 312 312 314 319 331 338 337 336 318 296 279 263 256 255 256 257 257 260 270 277 274 268 263 259 256 250 246 245 245 246 247 247 248 249 250 249 247 247 248 250 251 252 251 250 250 249 249 249 249 250 252 253 254 253 253 252 251 251 251 251 251 251 251 251 252 253 253 252 251 251 252 252 251
63 347 343 35 160 172 149 142 168 199 241 279 304 320 258 222 212 235 261 265 267 275 288 296 291 290 296 304 320 327 325 324 321 308 292 278 265 259 257 258 263 271 281 283 278 274 268 259 257 257 253 248 244 245 245 245 247 248 250 250 249 248 249 250 251 252 252 251 251 251 251 251 251 252 252 253 254 254 255 256 256 255 254 254 253 253 253 253 253 254 254 254 253 252 253 253 253
135 186 271 234 167 129 176 229 142 146 170 217 292 308 271 244 191 209 245 258 252 248 261 271 276 285 291 298 311 317 314 305 299 299 295 287 270 257 262 276 285 289 289 285 279 276 269 258 255 258 257 254 250 247 246 246 246 246 247 247 248 248 249 250 251 251 251 252 251 251 252 251 251 251 251 253 254 256 258 259 260 259 258 257 256 255 255 255 254 255 255 254 254 253 252 253 252
161 183 197 187 158 122 140 269 280 105 159 189 162 287 275 251 171 206 237 252 252 238 238 258 271 278 286 298 307 309 306 299 296 295 291 284 272 267 278 289 296 297 295 288 277 271 268 262 256 253 254 257 258 256 250 247 246 246 246 246 246 247 248 249 250 250 251 251 251 251 251 250 250 250 251 253 255 257 259 260 262 263 262 261 259 257 257 256 255 255 255 255 254 254 253 253 252